EDT,Max TemperatureF,Mean TemperatureF,Min TemperatureF,Max Dew PointF,MeanDew PointF,Min DewpointF,Max Humidity, Mean Humidity, Min Humidity, Max Sea Level PressureIn, Mean Sea Level PressureIn, Min Sea Level PressureIn, Max VisibilityMiles, Mean VisibilityMiles, Min VisibilityMiles, Max Wind SpeedMPH, Mean Wind SpeedMPH, Max Gust SpeedMPH,PrecipitationIn, CloudCover, Events, WindDirDegrees
2012-9-1,82,73,64,63,56,51,73,58,42,30.14,30.09,30.05,10,10,10,14,9,17,0.00,6,,67
2012-9-2,85,76,66,67,62,58,84,66,48,30.05,30.00,29.94,10,10,10,17,11,22,0.00,3,,77
2012-9-3,89,76,62,69,64,59,90,70,50,29.99,29.94,29.88,10,10,10,12,6,15,0.00,2,,76
2012-9-4,83,76,69,71,68,65,90,78,65,29.92,29.88,29.85,10,8,2,22,5,28,1.11,5,Rain-Thunderstorm,67
2012-9-5,84,76,68,69,66,61,97,74,51,29.87,29.83,29.76,10,8,2,17,6,22,0.00,4,,192
2012-9-6,84,73,62,64,61,56,93,69,44,29.94,29.89,29.83,10,10,7,16,6,20,0.00,3,,245
2012-9-7,77,68,58,61,58,54,93,74,54,29.94,29.85,29.73,10,9,7,28,4,35,0.12,6,Rain,103
2012-9-8,71,62,52,55,51,46,93,69,44,29.86,29.80,29.75,10,10,8,22,9,28,T,5,Rain,295
2012-9-9,73,63,53,53,48,41,93,62,31,30.13,30.00,29.86,10,10,9,15,5,18,T,4,Fog,337
2012-9-10,75,61,46,52,48,43,93,67,41,30.25,30.18,30.14,10,10,10,13,4,21,0.00,2,,213
2012-9-11,81,67,53,54,51,47,89,63,36,30.18,30.14,30.09,10,10,10,22,10,28,0.00,2,,191
2012-9-12,84,71,58,59,55,52,78,56,34,30.19,30.15,30.12,10,10,10,20,9,24,0.00,2,,199
2012-9-13,77,66,54,63,57,51,93,73,53,30.32,30.23,30.15,10,9,5,18,8,22,0.22,6,Rain,271
2012-9-14,73,61,49,54,47,40,93,64,35,30.33,30.30,30.26,10,10,8,23,6,26,0.02,3,Rain,295
2012-9-15,76,60,44,48,44,40,92,61,29,30.35,30.27,30.16,10,10,10,10,3,13,0.00,0,,190
2012-9-16,78,64,50,56,48,43,83,57,31,30.15,30.08,30.01,10,10,10,14,7,17,0.00,3,,205
2012-9-17,78,66,53,61,54,48,83,65,46,30.00,29.85,29.71,10,10,6,18,9,24,0.02,5,Rain-Thunderstorm,210
2012-9-18,62,54,45,57,46,31,93,65,36,29.99,29.79,29.71,10,10,8,25,11,33,0.03,6,Rain-Thunderstorm,323
2012-9-19,68,54,39,42,39,36,92,63,34,30.10,30.00,29.87,10,10,10,24,11,30,T,4,Rain,188
2012-9-20,69,61,52,51,45,39,72,55,37,29.89,29.86,29.82,10,10,7,22,11,26,0.11,6,Rain-Thunderstorm,219
2012-9-21,67,57,46,52,47,38,93,65,37,29.92,29.88,29.77,10,10,7,31,8,38,0.20,6,Rain,199
2012-9-22,62,55,48,48,44,40,93,71,49,30.10,29.90,29.74,10,10,9,20,8,25,0.14,6,Rain,287
2012-9-23,57,49,40,45,39,34,93,68,43,30.23,30.18,30.11,10,10,10,20,7,26,T,6,,265
2012-9-24,64,52,39,41,37,34,92,63,34,30.21,30.07,29.89,10,10,10,28,13,33,0.00,3,,212
2012-9-25,74,61,47,52,47,37,86,67,47,29.93,29.88,29.83,10,10,10,17,8,22,0.00,3,,209
2012-9-26,72,61,49,54,48,41,93,64,35,30.16,29.99,29.89,10,10,9,13,6,15,0.00,4,,21
2012-9-27,68,59,49,47,45,43,80,61,42,30.26,30.20,30.17,10,10,10,16,9,21,0.00,5,,72
2012-9-28,71,60,49,48,44,34,86,56,26,30.20,30.15,30.11,10,10,10,12,4,56,0.00,4,,344
2012-9-29,75,59,43,50,42,38,89,58,27,30.12,30.04,29.96,10,10,10,15,5,20,0.00,2,,338
2012-9-30,68,57,45,48,43,39,100,69,37,30.01,29.98,29.95,10,10,10,18,7,25,0.00,1,,52